Content
SEND FEEDBACK

Daily
Averages
Monthly
Summary
Switzerland

GENEVA, SWITZERLAND


Home > Europe > Switzerland
Elevation: 1364 feet     Latitude: 46 15N     Longitude: 006 08E

WEATHER
 
SELECT A DAY
Number of Records: 306,006;   Date Range: 7/1/96 - 8/30/14
 
SHARE

PRINT THIS DATA

[ ← Previous Day ]
WEATHER ALMANAC - SEPTEMBER 21, 2013
[ Next Day → ]
[ °C ]   °F
Weather ElementAverageHighLow
Temperature57.9 °F68 °F (2:50 pm)46.4 °F (5:50 am)
Dewpoint50.5 °F55.4 °F (7:20 pm)44.6 °F (6:20 am)
Humidity76.6 %100 % (3:50 am)45 % (4:00 pm)
Barometer30.26 in30.33 in (10:20 pm)30.21 in (12:20 am)
Wind Speed3.5 mph10.4 mph (4:00 pm)
Weather ElementAverage
Visibility10 mi
Wind DirectionENE (64.2 °)

Weather ElementTotal
Precipitation---
Heating Degree Days7.8 (Base 65)
Growing Degree Days7.2 (Base 50)
Averaged from 59 records on September 21, 2013
WEATHER CONDITIONS BREAKOUT
WIND DIRECTION BREAKOUT
WEATHER BY HOUR - SEPTEMBER 21, 2013
[ °C ]   °F
Local TimeTemperatureDewpointHumidityBarometerVisibilityWind DirectionWind SpeedGust SpeedPrecipitationEventsConditions
12:20 AM51.8 °F50.0 °F94 %30.21 inCalmClear
12:50 AM51.8 °F50.0 °F94 %30.21 in6.2 miVariable1.2 mphPartly Cloudy
1:00 AM52.0 °F49.0 °F88 %30.23 inNNW (340°)3.5 mph
1:20 AM51.8 °F50.0 °F94 %30.21 in6.2 miCalmPartly Cloudy
1:50 AM51.8 °F50.0 °F94 %30.21 in6.2 miCalmPartly Cloudy
2:00 AM52.0 °F48.0 °F81 %30.23 in44.0 miWSW (240°)1.2 mphScattered Clouds
2:20 AM51.8 °F50.0 °F94 %30.21 inCalmClear
2:50 AM50.0 °F48.2 °F94 %30.21 inCalmClear
3:50 AM48.2 °F48.2 °F100 %30.21 inVariable1.2 mphClear
4:20 AM48.2 °F48.2 °F100 %30.24 inCalmClear
4:50 AM48.2 °F46.4 °F93 %30.24 inCalmClear
5:20 AM48.2 °F46.4 °F93 %30.24 inCalmClear
5:50 AM46.4 °F46.4 °F100 %30.24 inCalmClear
6:20 AM46.4 °F44.6 °F93 %30.24 inCalmClear
6:50 AM46.4 °F44.6 °F93 %30.24 inCalmClear
7:20 AM46.4 °F44.6 °F93 %30.27 inCalmClear
7:50 AM46.4 °F44.6 °F93 %30.27 inCalmClear
8:20 AM46.4 °F44.6 °F93 %30.27 in6.2 miCalmPartly Cloudy
8:50 AM51.8 °F50.0 °F94 %30.27 in6.2 miCalmPartly Cloudy
9:00 AM53.0 °F48.0 °F78 %30.28 inWest (280°)1.2 mph
9:20 AM55.4 °F50.0 °F82 %30.27 in6.2 miCalmPartly Cloudy
9:50 AM59.0 °F51.8 °F77 %30.27 in6.2 miVariable1.2 mphPartly Cloudy
10:20 AM60.8 °F51.8 °F72 %30.27 in6.2 miNE (40°)5.8 mphScattered Clouds
10:50 AM60.8 °F51.8 °F72 %30.27 in6.2 miNE (40°)8.1 mphScattered Clouds
11:20 AM60.8 °F51.8 °F72 %30.27 in6.2 miNE (50°)5.8 mphMostly Cloudy
11:50 AM62.6 °F51.8 °F68 %30.27 in6.2 miNNE (30°)8.1 mphMostly Cloudy
12:00 PM61.0 °F51.0 °F60 %30.27 inNE (50°)8.1 mph
12:20 PM62.6 °F51.8 °F68 %30.27 in6.2 miNE (50°)5.8 mphMostly Cloudy
12:50 PM64.4 °F51.8 °F64 %30.27 in6.2 miNE (50°)8.1 mphScattered Clouds
1:00 PM64.0 °F51.0 °F54 %30.26 inNE (40°)8.1 mph
1:20 PM64.4 °F53.6 °F68 %30.27 in6.2 miENE (70°)8.1 mphMostly Cloudy
1:50 PM64.4 °F53.6 °F68 %30.27 in6.2 miNE (40°)8.1 mphMostly Cloudy
2:00 PM65.0 °F51.0 °F50 %30.26 in44.0 miNE (40°)9.2 mphScattered Clouds
2:20 PM66.2 °F51.8 °F60 %30.27 in6.2 miNE (50°)8.1 mphMostly Cloudy
2:50 PM68.0 °F50.0 °F52 %30.27 in6.2 miNE (50°)9.2 mphMostly Cloudy
3:00 PM67.0 °F51.0 °F46 %30.25 inENE (60°)9.2 mph
3:20 PM68.0 °F51.8 °F56 %30.27 in6.2 miNE (50°)6.9 mphScattered Clouds
3:50 PM68.0 °F51.8 °F56 %30.27 in6.2 miENE (60°)8.1 mphScattered Clouds
4:00 PM67.0 °F50.0 °F45 %30.25 inNE (40°)10.4 mph
4:20 PM68.0 °F51.8 °F56 %30.27 in6.2 miNNE (30°)9.2 mphPartly Cloudy
4:50 PM68.0 °F50.0 °F52 %30.27 in6.2 miNE (40°)6.9 mphPartly Cloudy
5:20 PM68.0 °F51.8 °F56 %30.27 in6.2 miNNE (30°)8.1 mphScattered Clouds
5:50 PM68.0 °F51.8 °F56 %30.27 in6.2 miNE (40°)5.8 mphScattered Clouds
6:00 PM67.0 °F51.0 °F46 %30.25 inNNE (20°)4.6 mph
6:20 PM68.0 °F53.6 °F60 %30.27 in6.2 miNorth (360°)4.6 mphScattered Clouds
6:50 PM66.2 °F53.6 °F64 %30.27 in6.2 miVariable3.5 mphMostly Cloudy
7:00 PM64.0 °F53.0 °F58 %30.26 inNorth (10°)3.5 mph
7:20 PM62.6 °F55.4 °F77 %30.27 in6.2 miVariable2.3 mphMostly Cloudy
7:50 PM60.8 °F53.6 °F77 %30.30 in6.2 miVariable2.3 mphMostly Cloudy
8:00 PM60.0 °F53.0 °F70 %30.28 in44.0 miNNW (340°)2.3 mphScattered Clouds
8:20 PM59.0 °F53.6 °F82 %30.30 inCalmClear
8:50 PM57.2 °F53.6 °F88 %30.30 inNorth (350°)2.3 mphClear
9:00 PM56.0 °F52.0 °F80 %30.31 inNorth (350°)2.3 mph
9:20 PM55.4 °F51.8 °F88 %30.30 inCalmClear
9:50 PM55.4 °F51.8 °F88 %30.30 inCalmClear
10:20 PM53.6 °F51.8 °F94 %30.33 inNW (310°)1.2 mphClear
10:50 PM53.6 °F51.8 °F94 %30.33 inWSW (240°)1.2 mphClear
11:20 PM53.6 °F51.8 °F94 %30.33 inCalmClear
11:50 PM51.8 °F50.0 °F94 %30.33 inCalmClear
Hourly data recorded from LSGG, located miles away from Geneva, Switzerland







STORIES FROM OUR PARTNERS